Weather History for Nashville, TN

Change the Weather History Date:

Monday, February 18, 2013

  Actual Average Record
Temperature  
Mean Temperature 49 °F 42 °F  
Max Temperature 63 °F 53 °F 74 °F (1951)
Min Temperature 34 °F 32 °F -1 °F (1936)
Degree Days  
Heating Degree Days 16 23  
Month to date heating degree days 399 443  
Since 1 July heating degree days 2407 2728  
Cooling Degree Days 0 0  
Month to date cooling degree days 0 0  
Year to date cooling degree days 4 0  
Moisture  
Dew Point 29 °F    
Average Humidity 43    
Maximum Humidity 56    
Minimum Humidity 30    
Precipitation  
Precipitation 0.24 in 0.13 in 2.59 in (1881)
Month to date precipitation 1.58 2.51  
Year to date precipitation 8.72 6.26  
Snow  
Snow 0.00 in 0.10 in 7.40 in (1960)
Month to date snowfall 0.7 1.7  
Since 1 July snowfall 1.0 4.8  
Snow Depth 0.00 in    
Sea Level Pressure  
Sea Level Pressure 30.05 in    
Wind  
Wind Speed 16 mph (South)    
Max Wind Speed 33 mph    
Max Gust Speed 51 mph    
Visibility 10 miles    
Events Rain    
T = Trace of Precipitation, MM = Missing Value Source: NWS Daily Summary

Daily Weather History Graph

Daily Weather History Graph

Search for Another Location

Airport:

Trip Planner

Search our weather history database for the weather conditions in past years. The results will help you decide how hot, cold, wet, or windy it might be!

Date:

Astronomy

Feb. 18, 2013 Rise Set
Actual Time 6:30 AM CST 5:31 PM CST
Civil Twilight 6:04 AM CST 5:57 PM CST
Nautical Twilight 5:34 AM CST 6:27 PM CST
Astronomical Twilight 5:04 AM CST 6:57 PM CST
Moon 11:22 AM CST (2/18) 1:04 AM CST (2/18)
Length of Visible Light 11h 53m
Length of Day
11h 00m
First Quarter, 58% of the Moon is Illuminated
Feb 18
First Quarter
Feb 25
Full
Mar 4
Last Quarter
Mar 11
New
Mar 19
First Quarter

Hourly Weather History & Observations

Time (CST) Temp. Windchill Dew Point Humidity Pressure Visibility Wind Dir Wind Speed Gust Speed Precip Events Conditions
12:53 AM 36.0 °F 30.3 °F 18.0 °F 48% 30.18 in 10.0 mi SSE 6.9 mph - N/A   Scattered Clouds
1:53 AM 35.1 °F 29.3 °F 18.0 °F 50% 30.17 in 10.0 mi SSE 6.9 mph - N/A   Scattered Clouds
2:53 AM 35.1 °F 31.0 °F 18.0 °F 50% 30.16 in 10.0 mi SSE 4.6 mph - N/A   Mostly Cloudy
3:53 AM 35.1 °F 30.1 °F 19.0 °F 52% 30.16 in 10.0 mi South 5.8 mph - N/A   Mostly Cloudy
4:53 AM 36.0 °F 30.3 °F 19.9 °F 52% 30.17 in 10.0 mi South 6.9 mph - N/A   Clear
6:53 AM 36.0 °F 31.1 °F 21.9 °F 57% 30.18 in 10.0 mi South 5.8 mph - N/A   Scattered Clouds
7:53 AM 44.6 °F 38.4 °F 26.6 °F 49% 30.19 in 10.0 mi South 12.7 mph - N/A   Scattered Clouds
8:53 AM 48.0 °F - 28.9 °F 48% 30.19 in 10.0 mi South 13.8 mph 19.6 mph N/A   Mostly Cloudy
9:53 AM 53.1 °F - 30.0 °F 41% 30.17 in 10.0 mi South 12.7 mph - N/A   Mostly Cloudy
10:53 AM 55.9 °F - 28.9 °F 36% 30.15 in 10.0 mi SSW 16.1 mph 28.8 mph N/A   Mostly Cloudy
11:53 AM 59.0 °F - 28.9 °F 32% 30.10 in 10.0 mi South 19.6 mph 28.8 mph N/A   Scattered Clouds
12:53 PM 60.1 °F - 30.0 °F 32% 30.06 in 10.0 mi South 18.4 mph 31.1 mph N/A   Scattered Clouds
1:53 PM 63.0 °F - 30.0 °F 29% 30.01 in 10.0 mi South 25.3 mph 33.4 mph N/A   Scattered Clouds
2:53 PM 61.0 °F - 30.9 °F 32% 29.99 in 10.0 mi South 26.5 mph 33.4 mph N/A   Mostly Cloudy
3:53 PM 60.1 °F - 30.9 °F 33% 29.96 in 10.0 mi South 27.6 mph 36.8 mph N/A   Mostly Cloudy
4:53 PM 59.0 °F - 32.0 °F 36% 29.93 in 10.0 mi South 23.0 mph 28.8 mph N/A   Mostly Cloudy
5:53 PM 57.9 °F - 30.9 °F 36% 29.92 in 10.0 mi South 15.0 mph 28.8 mph N/A   Mostly Cloudy
6:53 PM 57.0 °F - 30.9 °F 37% 29.88 in 10.0 mi SSE 24.2 mph 33.4 mph N/A   Mostly Cloudy
7:53 PM 57.0 °F - 30.0 °F 36% 29.87 in 10.0 mi South 25.3 mph 42.6 mph 0.00 in Rain Light Rain
8:53 PM 55.0 °F - 30.9 °F 40% 29.87 in 10.0 mi South 23.0 mph 36.8 mph 0.00 in Rain Light Rain
9:53 PM 48.9 °F - 39.0 °F 69% 29.88 in 10.0 mi South 21.9 mph 29.9 mph 0.07 in   Overcast
10:53 PM 46.9 °F - 41.0 °F 80% 29.91 in 6.0 mi SSW 11.5 mph 26.5 mph 0.06 in Rain Rain
11:53 PM 46.0 °F 40.6 °F 43.0 °F 89% 29.95 in 8.0 mi SSW 11.5 mph - 0.10 in Rain Light Rain